User: anonymous   Login
Location: Homewood
(41.1836°S, 175.9581°E)
Time: 11:52:49
(UTC+00:00)
Language:

EXPRESS MD2 - Orbit

View from above orbital plane
View from above orbital plane
View from above satellite
View from above satellite

Ground track
Ground track

The orbit data is extracted from the following two-line orbital elements,

1 38745U 12044B   24173.94020069  .00027604  49330-5  60799-3 0  9992
2 38745  49.8522 133.5708 1876720 108.1883 273.1509 11.74798416472936
Epoch (UTC): 21 June 2024 22:33:53
Eccentricity: 0.1876720
inclination: 49.8522°
perigee height: 262 km
apogee height: 3329 km
right ascension of ascending node: 133.5708°
argument of perigee: 108.1883°
revolutions per day: 11.74798416
mean anomaly at epoch: 273.1509°
orbit number at epoch: 47293

The dashed part of the orbit path shows where the satellite is in the earth's shadow,  

DLR